Regional Weather Roundup
Issued by NWS

Home | Current Version | Previous Version | Graphics & Text | Print | Product List | Glossary On
Versions: 1 2 3 4 5 6 7 8 9 10 11 12 13 14 15 16 17 18 19 20 21 22 23 24 25 26 27 28 29 30 31 32 33 34 35 36 37 38 39 40 41 42 43 44 45 46 47 48 49 50
000
ASUS43 KDTX 052201
RWRMI
MICHIGAN HOURLY REGIONAL WEATHER ROUNDUP
NATIONAL WEATHER SERVICE DETROIT/PONTIAC MI
500 PM EST THU MAR 05 2015

NOTE: "FAIR" INDICATES FEW OR NO CLOUDS BELOW 12,000 FEET WITH NO
SIGNIFICANT WEATHER AND/OR OBSTRUCTION TO VISIBILITY.

MIZ047>049-052>055-059>063-066>070-074>076-081>083-052300-
SOUTHEAST LOWER MICHIGAN

CITY           SKY/WX    TMP DP  RH WIND       PRES   REMARKS
ADRIAN         MOSUNNY   18  -1  43 N7        30.42R WCI   9
ALMA           CLOUDY    16   1  51 W13       30.41R WCI   3
ANN ARBOR      SUNNY     17  -1  45 NW7       30.40R WCI   8
BAD AXE        SUNNY     12  -3  51 W9        30.39S WCI  -1
CARO           SUNNY     15  -2  47 W6        30.40S WCI   6
DETROIT CITY   SUNNY     19  -3  38 NW12      30.41R WCI   7
DETROIT        MOSUNNY   19   0  43 W10       30.42R WCI   7
FLINT          SUNNY     15  -2  46 W10       30.41R WCI   2
GROSSE ILE     SUNNY     19  -4  35 NW10      30.41R WCI   8
HILLSDALE      CLOUDY    19   3  50 NW10      30.38R WCI   7
HOWELL         SUNNY     15  -1  50 NW10      30.40R WCI   2

CITY           SKY/WX    TMP DP  RH WIND       PRES   REMARKS
JACKSON        SUNNY     17   1  49 NW9       30.40R WCI   6
LAMBERTVILLE   SUNNY     21   1  42 W3        30.43R
LANSING        MOSUNNY   17   0  47 NW9       30.41R WCI   6
LAPEER         FAIR      14  -5  42 W7        30.40R WCI   4
MASON          SUNNY     16   0  50 NW7       30.41R WCI   6
MONROE         SUNNY     18   1  49 W9        30.41R WCI   6
MT. CLEMENS    SUNNY     16  -2  46 N10       30.39R WCI   3
PONTIAC        MOSUNNY   14  -3  47 NW12      30.38R WCI   0
PORT HOPE        N/A     12  -4  48 VRB7      30.38S WCI   1
PORT HURON     SUNNY     14  -6  41 NW8       30.42R WCI   3
TRI CITIES     MOSUNNY   17   0  47 SW6       30.41R WCI   9
TROY           FAIR      18  -4  37 NW7       30.43R WCI   9
SAGINAW HB     SUNNY     18   1  49 W9        30.41S WCI   6
$$
MIZ043>046-050>051-056>058-064>065-071>073-077>080-052300-
SOUTHWEST LOWER MICHIGAN

CITY           SKY/WX    TMP DP  RH WIND       PRES   REMARKS
BATTLE CREEK   SUNNY     19   2  47 NW9       30.41R WCI   8
BENTON HARBOR  LGT SNOW  16  10  77 NW8       30.48R WCI   5
BIG RAPIDS     CLOUDY    15   3  59 NW7       30.39R WCI   5
COLDWATER      CLOUDY    18   3  52 NW3       30.41R
FREMONT        FAIR      15  -1  49 W9        30.43R WCI   3
HOLLAND        FLURRIES  16   6  65 NW9       30.47R WCI   4
GRAND RAPIDS   PTSUNNY   16   3  56 NW13      30.43R WCI   2
IONIA          FAIR      18   3  52 NW9       30.41R WCI   7
KALAMAZOO      MOSUNNY   19   2  47 NW13      30.43R WCI   6
LUDINGTON      CLOUDY    15   3  59 W6        30.45S WCI   6
MARSHALL       MOSUNNY   17   1  48 NW7       30.40R WCI   8
MOUNT PLEASANT CLOUDY    17   2  50 W8        30.40R WCI   7
MUSKEGON       PTSUNNY   15   3  59 NW9       30.47R WCI   3
SOUTH HAVEN    MOSUNNY   17   8  67 N10G16    30.47R WCI   5
$$
MIZ016>042-052300-
NORTHERN LOWER MICHIGAN

CITY           SKY/WX    TMP DP  RH WIND       PRES   REMARKS
ALPENA         SUNNY     16  -6  37 VRB6      30.36R WCI   7
BEAVER ISLAND  SUNNY     10   0  63 SW9G16    30.39S WCI  -3
BELLAIRE       PTSUNNY   13   0  55 NW3       30.41S
CADILLAC       CLOUDY    11   1  64 W9        30.34R WCI  -1
CHARLEVOIX     MOSUNNY    9   0  67 CALM      30.43S
FRANKFORT      CLOUDY    12   3  67 W5        30.42F WCI   4
GAYLORD        MOSUNNY   10  -3  55 W9        30.31S WCI  -3
GRAYLING       PTSUNNY   13   0  55 NW7       30.35R WCI   3
HARBOR SPRINGS SUNNY      8  -2  63 SW8       30.39S WCI  -4
HOUGHTON LAKE  PTSUNNY   13   0  56 W12       30.34R WCI  -1
MANISTEE       CLOUDY    12   0  57 W8        30.43S WCI   1
OSCODA         SUNNY     15   3  59 E6        30.36S WCI   7
PELLSTON       SUNNY     10  -3  55 W13       30.39R WCI  -5
ROGERS CITY    SUNNY     14  -3  47 W9G17     30.37S WCI   2
TRAVERSE CITY  FLURRIES  13   2  61 W13       30.40R WCI  -2
$$
MIZ007>008-015-052300-
EASTERN UPPER MICHIGAN

CITY           SKY/WX    TMP DP  RH WIND       PRES   REMARKS
KINROSS        MOSUNNY   10   0  61 N7        30.33R WCI   0
MACKINAC ISLAN SUNNY      9  -1  63 SW12      30.36S WCI  -6
NEWBERRY       MOSUNNY   12  -3  51 W10       30.32S WCI  -1
S. S. MARIE    SUNNY     10  -3  55 NW8       30.34R WCI  -2
MUNISING         N/A     10  -2  58 NE10      30.34F WCI  -4
$$
MIZ004>006-011>014-085-052300-
CENTRAL UPPER MICHIGAN

CITY           SKY/WX    TMP DP  RH WIND       PRES   REMARKS
MANISTIQUE     SUNNY     14  -2  48 SW7       30.35R WCI   4
ESCANABA       SUNNY     12   3  67 S14       30.37S WCI  -3
MENOMINEE      SUNNY     18  -6  35 W8        30.37S WCI   7
SAWYER-GWINN   SUNNY     16  -6  38 NW8       30.27S WCI   5
$$
MIZ001>003-009>011-084-052300-
WESTERN UPPER MICHIGAN

CITY           SKY/WX    TMP DP  RH WIND       PRES   REMARKS
IRON MOUNTAIN  SUNNY     16  -9  32 W8        30.28F WCI   5
HOUGHTON       SUNNY     10  -6  48 W13       30.27F WCI  -5
COPPER HARBOR    N/A     12  -5  46 NW8       30.30S WCI   0
IRONWOOD       SUNNY     14  -9  34 W10       30.27S WCI   1
$$

ABBREVIATIONS USED IN REMARKS
   TC - TEMPERATURE IN CELSIUS
  WCI - WIND CHILL INDEX
   HX - HEAT INDEX
  VSB - VISIBILITY



USA.gov is the U.S. government's official web portal to all federal, state and local government web resources and services.